Weather History for Harrison, AR

Change the Weather History Date:

Wednesday, May 7, 2014

  Actual Average Record
Temperature  
Mean Temperature 76 °F 64 °F  
Max Temperature 84 °F 74 °F 91 °F (1918)
Min Temperature 67 °F 53 °F 29 °F (1906)
Degree Days  
Heating Degree Days 0 4  
Month to date heating degree days 26 28  
Since 1 July heating degree days 4392 3949  
Cooling Degree Days 11 2  
Month to date cooling degree days 39 14  
Year to date cooling degree days 57 51  
Growing Degree Days 25 (Base 50)    
Moisture  
Dew Point 59 °F    
Average Humidity 58    
Maximum Humidity 68    
Minimum Humidity 48    
Precipitation  
Precipitation 0.00 in 0.16 in 5.00 in (1961)
Month to date precipitation 0.00 1.19  
Year to date precipitation 10.94 14.50  
Snow  
Snow 0.00 in 0.00 in - ()
Month to date snowfall 0.0 0.0  
Since 1 July snowfall 25.8 11.5  
Snow Depth 0.00 in    
Sea Level Pressure  
Sea Level Pressure 29.78 in    
Wind  
Wind Speed 14 mph (SSE)    
Max Wind Speed 22 mph    
Max Gust Speed 30 mph    
Visibility 10 miles    
Events      
T = Trace of Precipitation, MM = Missing Value Source: NWS Daily Summary

Daily Weather History Graph

Daily Weather History Graph

Search for Another Location

Airport:

Trip Planner

Search our weather history database for the weather conditions in past years. The results will help you decide how hot, cold, wet, or windy it might be!

Date:

Astronomy

May. 07, 2014 Rise Set
Actual Time 6:13 AM CDT 8:05 PM CDT
Civil Twilight 5:45 AM CDT 8:33 PM CDT
Nautical Twilight 5:11 AM CDT 9:07 PM CDT
Astronomical Twilight 4:35 AM CDT 9:44 PM CDT
Moon 1:23 PM CDT (5/7) 2:00 AM CDT (5/7)
Length of Visible Light 14h 48m
Length of Day
13h 52m
First Quarter, 55% of the Moon is Illuminated
May 7
First Quarter
May 14
Full
May 21
Last Quarter
May 28
New
Jun 5
First Quarter

Hourly Weather History & Observations

Time (CDT) Temp. Heat Index Dew Point Humidity Pressure Visibility Wind Dir Wind Speed Gust Speed Precip Events Conditions
12:53 AM 71.1 °F - 57.0 °F 61% 29.73 in 10.0 mi South 13.8 mph 21.9 mph N/A   Clear
1:53 AM 70.0 °F - 57.0 °F 63% 29.73 in 10.0 mi South 12.7 mph 17.3 mph N/A   Clear
2:53 AM 70.0 °F - 57.0 °F 63% 29.70 in 10.0 mi South 10.4 mph 20.7 mph N/A   Clear
3:53 AM 69.1 °F - 57.0 °F 65% 29.73 in 10.0 mi SSE 5.8 mph - N/A   Clear
4:53 AM 69.1 °F - 57.0 °F 65% 29.74 in 10.0 mi South 8.1 mph - N/A   Clear
5:53 AM 68.0 °F - 55.9 °F 65% 29.75 in 10.0 mi South 12.7 mph - N/A   Clear
6:53 AM 66.9 °F - 55.0 °F 66% 29.76 in 10.0 mi South 15.0 mph - N/A   Clear
7:53 AM 70.0 °F - 55.0 °F 59% 29.76 in 10.0 mi South 18.4 mph 27.6 mph N/A   Clear
8:53 AM 73.0 °F - 55.0 °F 53% 29.79 in 10.0 mi South 16.1 mph 21.9 mph N/A   Clear
9:53 AM 73.9 °F - 55.9 °F 53% 29.79 in 10.0 mi South 15.0 mph 24.2 mph N/A   Clear
10:53 AM 75.9 °F - 59.0 °F 56% 29.80 in 10.0 mi SSE 13.8 mph 19.6 mph N/A   Clear
11:53 AM 78.8 °F - 60.8 °F 54% 29.85 in 10.0 mi SSE 19.6 mph 26.5 mph N/A   Clear
12:53 PM 79.0 °F - 61.0 °F 54% 29.80 in 10.0 mi SSE 17.3 mph 21.9 mph N/A   Clear
1:53 PM 81.0 °F 81.9 °F 62.1 °F 52% 29.81 in 10.0 mi SSE 16.1 mph 23.0 mph N/A   Clear
2:53 PM 84.0 °F 84.9 °F 63.0 °F 49% 29.79 in 10.0 mi SSE 16.1 mph 21.9 mph N/A   Clear
3:53 PM 82.0 °F 83.0 °F 62.1 °F 51% 29.79 in 10.0 mi South 15.0 mph 20.7 mph N/A   Clear
4:53 PM 81.0 °F 81.7 °F 61.0 °F 50% 29.79 in 10.0 mi South 15.0 mph 21.9 mph N/A   Clear
5:53 PM 78.1 °F - 61.0 °F 56% 29.81 in 10.0 mi South 12.7 mph - N/A   Clear
6:53 PM 75.9 °F - 60.1 °F 58% 29.80 in 10.0 mi SSE 10.4 mph - N/A   Clear
7:53 PM 75.0 °F - 60.1 °F 60% 29.80 in 10.0 mi South 13.8 mph - N/A   Clear
8:53 PM 73.0 °F - 60.1 °F 64% 29.80 in 10.0 mi SSE 10.4 mph - N/A   Clear
9:53 PM 73.0 °F - 61.0 °F 66% 29.82 in 10.0 mi SSE 16.1 mph 29.9 mph N/A   Clear
10:53 PM 72.0 °F - 61.0 °F 68% 29.81 in 10.0 mi SSE 16.1 mph 25.3 mph N/A   Clear
11:53 PM 73.0 °F - 61.0 °F 66% 29.81 in 10.0 mi SSE 15.0 mph 23.0 mph N/A   Clear